Back to catalog

CZ-3B DEB

AliveGTO
NORAD 40852·DEBRIS·🇨🇳 China

Launched Dec 19, 2011 from Xichang Satellite Launch Center

Loading…

TLE

StaleSource: Space-Track

Epoch: Sep 9, 2026, 10:35 UTC

1 40852U 11077AH  26252.44153329 -.00000253  00000-0  00000-0 0  9994
2 40852  27.2247  16.3899 7339631 342.1674   1.7494  1.90661007 87965

Track CZ-3B DEB in real time with AllMySat

Download on the App Store